Regional Weather Roundup
Issued by NWS Grand Forks, ND

Home | Current Version | Previous Version | Text Only | Print | Product List | Glossary On
Versions: 1 2 3 4 5 6 7 8 9 10 11 12 13 14 15 16 17 18 19 20 21 22 23 24 25 26 27 28 29 30 31 32 33 34 35 36 37 38 39 40 41 42 43 44 45 46 47 48 49 50
000
ASUS43 KFGF 290131
RWRFGF
PRAIRIE TO PINES  WEATHER ROUNDUP
NATIONAL WEATHER SERVICE EASTERN NORTH DAKOTA/GRAND FORKS ND
800 PM CDT SAT MAY 28 2016

 **SATELLITE DATA USED TO AUGMENT SKY COVER AT AUTOMATED STATIONS**
 *****  WEATHER ACROSS EASTERN NORTH DAKOTA  *****

CITY           SKY/WX    TMP DP  RH WIND       PRES   REMARKS
GRAND FORKS    CLOUDY    64  58  80 E10       29.84R
GRAND FRKS AFB DRIZZLE   63  61  94 E6        29.85R
GRAND FRKS NWS   N/A     61 N/A N/A NE9         N/A
DEVILS LAKE    CLOUDY    64  59  82 NE15      29.88
FARGO          CLOUDY    64  58  80 N9        29.83R
WAHPETON ARPT  CLOUDY    63  54  72 N9        29.83R
$$

 ***** WEATHER ACROSS CENTRAL AND WESTERN NORTH DAKOTA  *****

CITY           SKY/WX    TMP DP  RH WIND       PRES   REMARKS
BISMARCK       RAIN      59  56  89 NE10      29.89F
MINOT          CLOUDY    67  54  63 N5        29.88S
JAMESTOWN      CLOUDY    69  54  58 NE8       29.84S
MINOT AFB      CLOUDY    65  54  69 N7        29.88R
GARRISON         N/A     60  56  86 NW7       29.89F
WILLISTON      MOSUNNY   62  56  80 S5        29.92S
DICKINSON      PTSUNNY   60  54  80 N9        29.92R
HETTINGER      PTSUNNY   68  52  56 N8        29.94R
$$

 *****  OTHER AIRPORT OBSERVATIONS IN OUR AREA  *****

CITY           SKY/WX    TMP DP  RH WIND       PRES   REMARKS
WALHALLA       FAIR      63  63 100 NW10      29.89R
GRAFTON AIRPOR DRIZZLE   61  61 100 E7        29.88R
VALLEY CITY AR CLOUDY    64  63  94 E6        29.88R
CANDO          CLOUDY    59  59 100 N14       29.93R
CAVALIER APRT  FAIR      66  59  77 N9        29.86S
GWINNER        MOCLDY    63  61  94 N5        29.86R
SHEYENNE NWR     N/A     66  58  76 CALM      29.95S
ROLLA          CLOUDY    57  57 100 NE12      29.93S
 ***** THE ABOVE OBSERVATIONS ARE NON NWS ARE NOT QUALITY
       CONTROLLED AND MAY MIS-REPORT RAIN FOR SNOW...
$$

  *****  WEATHER ACROSS NORTHERN MINNESOTA  *****

CITY           SKY/WX    TMP DP  RH WIND       PRES   REMARKS
FLAG ISLAND    LGT RAIN  55  54  94 NE12      29.86R
WARROAD        DRIZZLE   57  54  88 NE10G16   29.87R
ROSEAU         RAIN      57  54  88 NE9       29.86R
HALLOCK        HVY RAIN  63  61  94 SE6       29.85R
THF RVR FALLS  CLOUDY    59  55  88 NE9       29.85S
BAUDETTE       CLOUDY    57  54  89 N9        29.83S
WASKISH        CLOUDY    59  57  94 CALM      29.81R
CROOKSTON      CLOUDY    61  61 100 N3        29.84S
STEPHEN NDAWN    N/A    N/A N/A N/A E3          N/A
GREENBUSH NDAW   N/A     61  57  88 NE9         N/A
$$
  *****  WEATHER ACROSS CENTRAL AND WEST MINNESOTA  *****

CITY           SKY/WX    TMP DP  RH WIND       PRES   REMARKS
FOSSTON        CLOUDY    57  57 100 N6        29.83R
BEMIDJI        DRIZZLE   58  57  96 N3        29.81R
PARK RAPIDS    CLOUDY    61  57  87 NW3       29.80S
ELBOW LAKE     RAIN      61  59  92 NW6       29.83R
WADENA         DRIZZLE   59  55  88 CALM      29.81R
DETROIT LAKES  RAIN      59  57  94 N5        29.83R
MOORHEAD       CLOUDY    63  59  88 N9        29.84R
FERGUS FALLS   DRIZZLE   63  57  82 NW7       29.80R
MORRIS MN      CLOUDY    63  61  94 W6        29.81S
STAPLES        CLOUDY    61  55  82 CALM      29.81R
$$
  *****  WEATHER ELSEWHERE ACROSS MINNESOTA  *****

CITY           SKY/WX    TMP DP  RH WIND       PRES   REMARKS
DULUTH         LGT RAIN  55  54  96 SE7       29.81S FOG
INTRNTL FALLS  CLOUDY    58  56  93 NE6       29.81S FOG
ELY            CLOUDY    63  61  94 CALM      29.81R
CLOQUET        CLOUDY    55  52  88 SE5       29.81S
WHEATON        CLOUDY    66  59  77 NW8       29.84R
BRAINERD       CLOUDY    60  58  92 W3        29.81R
HIBBING        LGT RAIN  59  58  96 E3        29.80R
ALEXANDRIA     CLOUDY    61  56  83 NW7       29.82R
SAINT CLOUD    CLOUDY    63  59  87 NW5       29.80R
MINNEAPOLIS    CLOUDY    64  60  87 N5        29.80R
$$

  *****  WEATHER ACROSS SOUTH DAKOTA  *****

CITY           SKY/WX    TMP DP  RH WIND       PRES   REMARKS
SIOUX FALLS    CLOUDY    62  59  90 N6        29.85R
BROOKINGS      CLOUDY    63  57  81 CALM      29.85R
WATERTOWN      PTCLDY    63  58  83 NW6       29.85R
HURON          CLOUDY    66  60  81 CALM      29.86S
SISSETON         N/A     63  60  90 W6        29.82R
ABERDEEN       MOSUNNY   70  56  61 SW3       29.86R
MITCHELL       MOCLDY    65  60  84 NW7       29.88R
PIERRE         PTSUNNY   67  57  70 SE6       29.88R
MOBRIDGE       RAIN      61  55  81 N5        29.91R
RAPID CITY     CLOUDY    60  53  77 S7        29.97R
$$

  *****  SOME WEATHER IN NEARBY STATES *****

CITY           SKY/WX    TMP DP  RH WIND       PRES   REMARKS
GLASGOW MT     SUNNY     65  38  36 W12       29.92S
GREAT FALLS MT MOSUNNY   60  27  28 W17G26    29.98S
CHEYENNE WY    PTSUNNY   66  34  30 W6        30.07R
SCOTTSBLUFF NE MOSUNNY   69  45  41 E16       29.98R
OMAHA NE       PTCLDY    72  55  55 W16G22    29.86R
DES MOINES IA  PTCLDY    71  58  63 SW13      29.85R
DAVENPORT IA   MOCLDY    75  60  59 SW13      29.86R
CHICAGO IL     MOCLDY    77  64  64 S16G26    29.88S
EAU CLAIRE WI  LGT RAIN  64  60  87 S6        29.78R
LA CROSSE WI   CLOUDY    71  63  75 S10       29.78R
$$

  *****  SOME NATIONAL WEATHER *****

CITY           SKY/WX    TMP DP  RH WIND       PRES   REMARKS
LA GUARDIA NY  MOCLDY    82  69  64 S6        30.08S
RALEIGH NC     CLOUDY    80  62  54 SE6       30.13R
ATLANTA GA     MOCLDY    80  53  39 SE5       30.11R
NEW ORLEANS LA CLOUDY    76  68  76 SE8       30.05R
OKLAHOMA CITY  CLEAR     78  66  66 S6        29.96R
ALBUQUERQUE NM MOSUNNY   80  20  10 SW12      30.02S
SALT LAKE CITY MOSUNNY   74  37  26 N9        30.00S
LOS ANGELES CA CLOUDY    62  54  74 W13       29.89R
BOISE ID       SUNNY     70  24  17 N9        29.99F
SEATTLE WA     LGT RAIN  56  52  86 SW9       30.04F
$$

*** WEATHER ACROSS MANITOBA...SASKATCHEWAN AND ONTARIO ***
                ***ONTARIO***

CITY           SKY/WX    TMP DP  RH WIND       PRES   REMARKS
GERALDTON      LGT RAIN  57  55  94 E10       29.89S VSB 3/4
THUNDER BAY    LGT RAIN  57  57 100 E6        29.82R FOG
SIOUX LOOKOUT  DRIZZLE   52  52 100 E7        29.89  FOG
TORONTO        MOCLDY    73  61  64 SE8       30.03S
BIG TROUT LK   CLOUDY    54  45  71 E9        30.13S
PICKLE LAKE    LGT RAIN  50  48  93 NE14G23   30.00S FOG
DRYDEN         LGT RAIN  54  52  94 NE14      29.87S FOG
KENORA         DRIZZLE   55  54  94 NE12      29.88S FOG
$$
                *** MANITOBA***

CITY           SKY/WX    TMP DP  RH WIND       PRES   REMARKS
BRANDON        CLOUDY    54  52  94 NE10      29.94S
DAUPHIN        CLOUDY    54  48  82 NE8       29.97R
ISLAND LAKE    CLOUDY    48  45  87 NE6       30.07F
PILOT MOUND      N/A     59  55  88 N8          N/A
THE PAS        CLOUDY    52  41  66 E6        30.03S
THOMPSON       MOSUNNY   52  39  62 E6        30.10S
WINNIPEG       PTSUNNY   61  55  82 NE16      29.89R
LYNN LAKE      SUNNY     52  37  58 E7        30.07S
CHURCHILL      SUNNY     43  28  56 SE16      30.26S
GILLAM         MOSUNNY   54  39  58 E8        30.16S
$$
                ***SASKATCHEWAN***

CITY           SKY/WX    TMP DP  RH WIND       PRES   REMARKS
ESTEVAN        LGT RAIN  61  55  82 SE6       29.91R
KINDERSLEY     MOSUNNY   57  45  62 CALM      29.86S
LLOYDMINSTER   LGT RAIN  50  48  93 W7        29.86S
PRINCE ALBERT  MOSUNNY   59  46  63 E15G22    29.89F
REGINA         LGT RAIN  55  54  94 SW6       29.89S
YORKTON        CLOUDY    55  48  76 SE12      29.93F
N. BATTLEFORD  LGT RAIN  52  52 100 NW6       29.87S
LA RONGE       CLOUDY    52  45  76 E8        29.98F
SASKATOON      LGT RAIN  55  55 100 CALM      29.87S
SWIFT CURRENT  LGT RAIN  54  45  71 VRB2      29.89R
$$
NOTE: THESE ARE AUTOMATED STATIONS WITH LIMITED QUALITY CONTROL
      "FAIR" INDICATES FEW OR NO CLOUDS BELOW 12,000 FEET WITH NO
      SIGNIFICANT WEATHER AND/OR OBSTRUCTIONS TO VISIBILITY.
      SKY/WX - SKY CONDITION AND SIGNIFICANT WEATHER.
      TMP - AIR TEMPERATURE.    DP   - DEWPOINT TEMPERATURE.
      RH  - RELATIVE HUMIDITY.  PRES - PRESSURE.
      HX  - HEAT INDEX.         WCI  - WIND CHILL INDEX.
$




USA.gov is the U.S. government's official web portal to all federal, state and local government web resources and services.